Location: ???????
(55.4362°N, 38.1183°E)
Time: 01:48:11
(UTC+00:00)

Cosmos 1707 - Visible Passes

Search period start: 23 October 2021 00:00
Search period end: 02 November 2021 00:00
Orbit: 514 x 528 km, 82.5° (Epoch: 22 October)

Date Brightness Start Highest point End Pass type
(mag) Time Alt. Az. Time Alt. Az. Time Alt. Az.
23 Oct 5.0 00:40:56 21° E 00:41:26 22° E 00:44:29 10° NE visible
23 Oct 3.0 02:16:06 38° WSW 02:17:01 46° WNW 02:20:49 10° N visible
24 Oct 5.3 00:28:33 19° ENE 00:28:33 19° ENE 00:31:03 10° NE visible
24 Oct 2.8 02:03:43 52° WNW 02:03:43 52° WNW 02:07:32 10° N visible
25 Oct 5.6 00:16:02 16° ENE 00:16:02 16° ENE 00:17:35 10° NE visible
25 Oct 3.2 01:51:13 46° NNW 01:51:13 46° NNW 01:54:15 10° N visible
26 Oct 5.9 00:03:26 12° NE 00:03:26 12° NE 00:04:05 10° NE visible
26 Oct 3.9 01:38:35 34° N 01:38:35 34° N 01:40:57 10° N visible
26 Oct 4.8 03:13:45 11° NW 03:13:45 11° NW 03:14:45 10° NW visible
27 Oct 4.5 01:25:54 25° N 01:25:54 25° N 01:27:38 10° N visible
27 Oct 4.9 03:01:03 11° NW 03:01:03 11° NW 03:01:51 10° NNW visible
28 Oct 4.9 01:13:08 19° N 01:13:08 19° N 01:14:20 10° N visible
28 Oct 4.9 02:48:17 11° NW 02:48:17 11° NW 02:48:50 10° NNW visible
29 Oct 5.4 01:00:20 15° NNE 01:00:20 15° NNE 01:01:01 10° NNE visible
29 Oct 5.1 02:35:28 11° NNW 02:35:28 11° NNW 02:35:44 10° NNW visible
30 Oct 5.7 00:47:27 11° NNE 00:47:27 11° NNE 00:47:41 10° NNE visible
